| time (UTC) | temp F | wind direction | speed MPH | gust MPH | rain 1hr in | rain 24hr in | rain mn in | humidity % | barometer mb |
| 20260504050605 | 58 | 212 | 0.0 | 0.0 | 0.00 | 0.00 | 0.00 | 75 | 1007.5 |
| 20260504050105 | 58 | 212 | 0.0 | 0.0 | 0.00 | 0.00 | 0.00 | 75 | 1007.5 |
| 20260504045605 | 58 | 212 | 0.0 | 0.0 | 0.00 | 0.00 | 0.00 | 75 | 1007.5 |
| 20260504045105 | 59 | 212 | 0.0 | 0.0 | 0.00 | 0.00 | 0.00 | 74 | 1007.4 |
| 20260504044605 | 59 | 212 | 0.0 | 0.0 | 0.00 | 0.00 | 0.00 | 73 | 1007.3 |
| 20260504044106 | 59 | 212 | 0.0 | 0.0 | 0.00 | 0.00 | 0.00 | 73 | 1007.3 |
| 20260504043105 | 59 | 212 | 0.0 | 1.0 | 0.00 | 0.00 | 0.00 | 72 | 1007.3 |
| 20260504042604 | 59 | 212 | 0.0 | 1.0 | 0.00 | 0.00 | 0.00 | 72 | 1007.3 |
| 20260504042105 | 60 | 212 | 0.0 | 2.0 | 0.00 | 0.00 | 0.00 | 72 | 1007.3 |
| 20260504041605 | 60 | 212 | 0.0 | 2.0 | 0.00 | 0.00 | 0.00 | 71 | 1007.3 |
| 20260504041105 | 61 | 212 | 0.0 | 1.0 | 0.00 | 0.00 | 0.00 | 70 | 1007.3 |
| 20260504040605 | 61 | 212 | 0.0 | 1.0 | 0.00 | 0.00 | 0.00 | 69 | 1007.2 |
| 20260504040105 | 62 | 212 | 0.0 | 0.0 | 0.00 | 0.00 | 0.00 | 68 | 1007.2 |
| 20260504035604 | 62 | 212 | 0.0 | 0.0 | 0.00 | 0.00 | 0.00 | 67 | 1007.1 |
| 20260504035104 | 63 | 212 | 0.0 | 0.0 | 0.00 | 0.00 | 0.00 | 65 | 1007.0 |
| 20260504034605 | 63 | 212 | 0.0 | 0.0 | 0.00 | 0.00 | 0.00 | 65 | 1007.0 |
| 20260504034105 | 64 | 212 | 0.0 | 0.0 | 0.00 | 0.00 | 0.00 | 64 | 1007.0 |
| 20260504033605 | 64 | 212 | 0.0 | 0.0 | 0.00 | 0.00 | 0.00 | 65 | 1006.9 |
| 20260504033104 | 65 | 213 | 0.0 | 1.0 | 0.00 | 0.00 | 0.00 | 64 | 1007.0 |
| 20260504032605 | 65 | 213 | 0.0 | 1.0 | 0.00 | 0.00 | 0.00 | 63 | 1006.9 |
| 20260504032104 | 66 | 213 | 0.0 | 1.0 | 0.00 | 0.00 | 0.00 | 62 | 1006.9 |
| 20260504031605 | 66 | 213 | 0.0 | 1.0 | 0.00 | 0.00 | 0.00 | 62 | 1006.9 |
| 20260504030605 | 67 | 213 | 0.0 | 2.0 | 0.00 | 0.00 | 0.00 | 60 | 1006.9 |
| 20260504030105 | 67 | 213 | 0.0 | 3.0 | 0.00 | 0.00 | 0.00 | 58 | 1006.9 |
| 20260504025604 | 67 | 213 | 1.0 | 3.0 | 0.00 | 0.00 | 0.00 | 56 | 1006.8 |
| 20260504025105 | 67 | 214 | 0.0 | 3.0 | 0.00 | 0.00 | 0.00 | 55 | 1006.9 |
| 20260504024605 | 67 | 214 | 1.0 | 3.0 | 0.00 | 0.00 | 0.00 | 55 | 1006.9 |
| 20260504024105 | 67 | 212 | 2.0 | 6.0 | 0.00 | 0.00 | 0.00 | 54 | 1006.9 |
| 20260504023605 | 67 | 214 | 2.0 | 6.0 | 0.00 | 0.00 | 0.00 | 55 | 1006.9 |
| 20260504022606 | 66 | 214 | 1.0 | 8.0 | 0.00 | 0.00 | 0.00 | 56 | 1007.0 |
| 20260504022105 | 66 | 214 | 2.0 | 8.0 | 0.00 | 0.00 | 0.00 | 56 | 1007.0 |
| 20260504021605 | 66 | 212 | 2.0 | 8.0 | 0.00 | 0.00 | 0.00 | 56 | 1007.0 |
| 20260504020605 | 66 | 213 | 2.0 | 8.0 | 0.00 | 0.00 | 0.00 | 59 | 1007.1 |
| 20260504020104 | 65 | 210 | 1.0 | 8.0 | 0.00 | 0.00 | 0.00 | 61 | 1007.2 |
| 20260504015606 | 65 | 214 | 2.0 | 8.0 | 0.00 | 0.00 | 0.00 | 62 | 1007.1 |
| 20260504015105 | 65 | 213 | 3.0 | 8.0 | 0.00 | 0.00 | 0.00 | 63 | 1007.1 |
| 20260504014605 | 65 | 212 | 2.0 | 10.0 | 0.00 | 0.00 | 0.00 | 65 | 1007.2 |
| 20260504013604 | 65 | 212 | 2.0 | 10.0 | 0.00 | 0.00 | 0.00 | 67 | 1007.2 |
| 20260504013105 | 65 | 212 | 2.0 | 5.0 | 0.00 | 0.00 | 0.00 | 67 | 1007.1 |
| 20260504012604 | 65 | 212 | 1.0 | 10.0 | 0.00 | 0.00 | 0.00 | 68 | 1007.2 |
| 20260504012105 | 65 | 215 | 2.0 | 10.0 | 0.00 | 0.00 | 0.00 | 67 | 1007.2 |
| 20260504011606 | 65 | 224 | 3.0 | 13.0 | 0.00 | 0.00 | 0.00 | 67 | 1007.3 |
| 20260504011104 | 65 | 211 | 2.0 | 13.0 | 0.00 | 0.00 | 0.00 | 66 | 1007.3 |
| 20260504010605 | 65 | 214 | 3.0 | 13.0 | 0.00 | 0.00 | 0.00 | 66 | 1007.4 |
| 20260504010106 | 65 | 212 | 2.0 | 8.0 | 0.00 | 0.00 | 0.00 | 66 | 1007.4 |
| 20260504005605 | 65 | 209 | 2.0 | 8.0 | 0.00 | 0.00 | 0.00 | 67 | 1007.4 |
| 20260504005104 | 65 | 213 | 2.0 | 9.0 | 0.00 | 0.00 | 0.00 | 67 | 1007.4 |
| 20260504004605 | 65 | 213 | 2.0 | 10.0 | 0.00 | 0.00 | 0.00 | 68 | 1007.4 |
| 20260504004106 | 65 | 211 | 2.0 | 10.0 | 0.00 | 0.00 | 0.00 | 67 | 1007.5 |
| 20260504003605 | 65 | 212 | 2.0 | 10.0 | 0.00 | 0.00 | 0.00 | 68 | 1007.5 |
| 20260504003104 | 65 | 210 | 3.0 | 12.0 | 0.00 | 0.00 | 0.00 | 68 | 1007.4 |
| 20260504002606 | 65 | 211 | 2.0 | 12.0 | 0.00 | 0.00 | 0.00 | 68 | 1007.5 |
| 20260504002105 | 66 | 211 | 3.0 | 12.0 | 0.00 | 0.00 | 0.00 | 67 | 1007.6 |
| 20260504001605 | 66 | 213 | 3.0 | 9.0 | 0.00 | 0.00 | 0.00 | 67 | 1007.6 |
| 20260504000604 | 66 | 212 | 3.0 | 12.0 | 0.00 | 0.00 | 0.00 | 67 | 1007.5 |
| 20260503235604 | 66 | 212 | 4.0 | 10.0 | 0.00 | 0.00 | 0.00 | 66 | 1007.6 |
| 20260503233604 | 67 | 211 | 3.0 | 10.0 | 0.00 | 0.00 | 0.00 | 65 | 1007.8 |
| 20260503233104 | 67 | 211 | 2.0 | 10.0 | 0.00 | 0.00 | 0.00 | 65 | 1007.7 |
| 20260503232604 | 67 | 211 | 4.0 | 10.0 | 0.00 | 0.00 | 0.00 | 64 | 1007.8 |
| 20260503232104 | 68 | 212 | 3.0 | 10.0 | 0.00 | 0.00 | 0.00 | 63 | 1007.9 |
| 20260503231606 | 68 | 212 | 2.0 | 9.0 | 0.00 | 0.00 | 0.00 | 63 | 1007.9 |
| 20260503231105 | 68 | 212 | 3.0 | 12.0 | 0.00 | 0.00 | 0.00 | 62 | 1007.9 |
| 20260503230605 | 69 | 212 | 3.0 | 12.0 | 0.00 | 0.00 | 0.00 | 60 | 1007.9 |
| 20260503230105 | 69 | 213 | 3.0 | 12.0 | 0.00 | 0.00 | 0.00 | 59 | 1008.0 |
| 20260503225604 | 70 | 211 | 5.0 | 12.0 | 0.00 | 0.00 | 0.00 | 57 | 1008.1 |
| 20260503225104 | 70 | 212 | 3.0 | 13.0 | 0.00 | 0.00 | 0.00 | 57 | 1008.1 |
| 20260503224105 | 72 | 212 | 3.0 | 9.0 | 0.00 | 0.00 | 0.00 | 54 | 1008.1 |
| 20260503223605 | 73 | 208 | 3.0 | 9.0 | 0.00 | 0.00 | 0.00 | 52 | 1008.1 |
| 20260503223105 | 74 | 215 | 2.0 | 9.0 | 0.00 | 0.00 | 0.00 | 52 | 1008.2 |
| 20260503222604 | 74 | 212 | 2.0 | 6.0 | 0.00 | 0.00 | 0.00 | 52 | 1008.2 |
| 20260503222104 | 75 | 214 | 2.0 | 8.0 | 0.00 | 0.00 | 0.00 | 52 | 1008.3 |
| 20260503221605 | 75 | 214 | 3.0 | 8.0 | 0.00 | 0.00 | 0.00 | 51 | 1008.3 |
| 20260503221105 | 75 | 205 | 2.0 | 6.0 | 0.00 | 0.00 | 0.00 | 52 | 1008.3 |
| 20260503220604 | 75 | 211 | 2.0 | 6.0 | 0.00 | 0.00 | 0.00 | 51 | 1008.2 |
| 20260503220104 | 75 | 212 | 1.0 | 6.0 | 0.00 | 0.00 | 0.00 | 53 | 1008.3 |
| 20260503215605 | 75 | 209 | 1.0 | 10.0 | 0.00 | 0.00 | 0.00 | 54 | 1008.3 |
| 20260503215105 | 75 | 213 | 2.0 | 10.0 | 0.00 | 0.00 | 0.00 | 53 | 1008.4 |
| 20260503214604 | 75 | 211 | 2.0 | 6.0 | 0.00 | 0.00 | 0.00 | 53 | 1008.4 |
| 20260503214105 | 75 | 211 | 2.0 | 6.0 | 0.00 | 0.00 | 0.00 | 52 | 1008.4 |
| 20260503213104 | 75 | 202 | 3.0 | 9.0 | 0.00 | 0.00 | 0.00 | 52 | 1008.5 |
| 20260503212606 | 76 | 212 | 3.0 | 8.0 | 0.00 | 0.00 | 0.00 | 51 | 1008.5 |
| 20260503211605 | 77 | 213 | 2.0 | 7.0 | 0.00 | 0.00 | 0.00 | 52 | 1008.6 |
| 20260503211106 | 78 | 211 | 2.0 | 7.0 | 0.00 | 0.00 | 0.00 | 49 | 1008.6 |
| 20260503210605 | 80 | 213 | 2.0 | 7.0 | 0.00 | 0.00 | 0.00 | 48 | 1008.6 |
| 20260503205605 | 81 | 214 | 1.0 | 3.0 | 0.00 | 0.00 | 0.00 | 48 | 1008.6 |
| 20260503205104 | 82 | 212 | 0.0 | 3.0 | 0.00 | 0.00 | 0.00 | 47 | 1008.5 |
| 20260503204604 | 82 | 212 | 1.0 | 3.0 | 0.00 | 0.00 | 0.00 | 47 | 1008.6 |
| 20260503204106 | 83 | 211 | 1.0 | 2.0 | 0.00 | 0.00 | 0.00 | 45 | 1008.7 |
| 20260503203104 | 85 | 195 | 1.0 | 3.0 | 0.00 | 0.00 | 0.00 | 44 | 1008.7 |
| 20260503202604 | 86 | 207 | 2.0 | 3.0 | 0.00 | 0.00 | 0.00 | 42 | 1008.7 |
| 20260503202104 | 87 | 214 | 2.0 | 5.0 | 0.00 | 0.00 | 0.00 | 37 | 1008.7 |
| 20260503201604 | 87 | 212 | 2.0 | 5.0 | 0.00 | 0.00 | 0.00 | 37 | 1008.8 |
| 20260503201105 | 87 | 210 | 1.0 | 5.0 | 0.00 | 0.00 | 0.00 | 39 | 1008.8 |
| 20260503200605 | 86 | 213 | 2.0 | 5.0 | 0.00 | 0.00 | 0.00 | 40 | 1008.9 |
| 20260503200106 | 86 | 214 | 1.0 | 3.0 | 0.00 | 0.00 | 0.00 | 39 | 1009.0 |
| 20260503195605 | 86 | 212 | 1.0 | 5.0 | 0.00 | 0.00 | 0.00 | 40 | 1009.1 |
| 20260503195105 | 85 | 213 | 2.0 | 5.0 | 0.00 | 0.00 | 0.00 | 40 | 1009.1 |
| 20260503194605 | 85 | 215 | 2.0 | 7.0 | 0.00 | 0.00 | 0.00 | 42 | 1009.1 |
| 20260503194105 | 85 | 207 | 2.0 | 9.0 | 0.00 | 0.00 | 0.00 | 39 | 1009.3 |
| 20260503193606 | 85 | 211 | 2.0 | 9.0 | 0.00 | 0.00 | 0.00 | 40 | 1009.3 |
| 20260503193105 | 85 | 216 | 1.0 | 6.0 | 0.00 | 0.00 | 0.00 | 40 | 1009.4 |
| 20260503192104 | 84 | 214 | 2.0 | 6.0 | 0.00 | 0.00 | 0.00 | 40 | 1009.5 |
| 20260503191604 | 84 | 216 | 1.0 | 7.0 | 0.00 | 0.00 | 0.00 | 40 | 1009.5 |
| 20260503190606 | 83 | 212 | 3.0 | 9.0 | 0.00 | 0.00 | 0.00 | 40 | 1009.6 |
| 20260503190105 | 83 | 213 | 2.0 | 7.0 | 0.00 | 0.00 | 0.00 | 41 | 1009.5 |
| 20260503185604 | 83 | 214 | 2.0 | 6.0 | 0.00 | 0.00 | 0.00 | 42 | 1009.6 |
| 20260503184105 | 82 | 215 | 2.0 | 8.0 | 0.00 | 0.00 | 0.00 | 42 | 1009.6 |
| 20260503183605 | 82 | 212 | 2.0 | 10.0 | 0.00 | 0.00 | 0.00 | 41 | 1009.6 |
| 20260503183108 | 82 | 214 | 3.0 | 10.0 | 0.00 | 0.00 | 0.00 | 41 | 1009.6 |
| 20260503182605 | 82 | 211 | 3.0 | 10.0 | 0.00 | 0.00 | 0.00 | 42 | 1009.7 |
| 20260503182104 | 82 | 213 | 3.0 | 9.0 | 0.00 | 0.00 | 0.00 | 41 | 1009.7 |
| 20260503181606 | 82 | 213 | 1.0 | 8.0 | 0.00 | 0.00 | 0.00 | 42 | 1009.7 |
| 20260503180606 | 81 | 216 | 1.0 | 6.0 | 0.00 | 0.00 | 0.00 | 44 | 1009.8 |
| 20260503180105 | 81 | 212 | 2.0 | 6.0 | 0.00 | 0.00 | 0.00 | 43 | 1009.8 |
| 20260503175604 | 81 | 214 | 1.0 | 5.0 | 0.00 | 0.00 | 0.00 | 43 | 1009.9 |
| 20260503175104 | 81 | 214 | 1.0 | 6.0 | 0.00 | 0.00 | 0.00 | 44 | 1009.9 |
| 20260503174604 | 81 | 213 | 2.0 | 6.0 | 0.00 | 0.00 | 0.00 | 45 | 1009.9 |
| 20260503174104 | 80 | 216 | 2.0 | 5.0 | 0.00 | 0.00 | 0.00 | 48 | 1010.0 |
| 20260503173605 | 80 | 213 | 1.0 | 5.0 | 0.00 | 0.00 | 0.00 | 45 | 1010.0 |
| 20260503173104 | 79 | 213 | 1.0 | 5.0 | 0.00 | 0.00 | 0.00 | 46 | 1010.0 |
| 20260503172604 | 79 | 213 | 2.0 | 5.0 | 0.00 | 0.00 | 0.00 | 46 | 1009.9 |
| 20260503172104 | 79 | 212 | 1.0 | 5.0 | 0.00 | 0.00 | 0.00 | 47 | 1010.0 |
| 20260503171104 | 79 | 212 | 1.0 | 6.0 | 0.00 | 0.00 | 0.00 | 47 | 1010.0 |
| 20260503170604 | 78 | 211 | 2.0 | 6.0 | 0.00 | 0.00 | 0.00 | 46 | 1010.0 |
| 20260503170104 | 78 | 212 | 0.0 | 6.0 | 0.00 | 0.00 | 0.00 | 50 | 1010.0 |
| 20260503150604 | 67 | 213 | 1.0 | 5.0 | 0.00 | 0.00 | 0.00 | 65 | 1010.3 |
| 20260503150103 | 66 | 213 | 1.0 | 5.0 | 0.00 | 0.00 | 0.00 | 65 | 1010.3 |
| 20260503131103 | 55 | 216 | 1.0 | 3.0 | 0.00 | 0.00 | 0.00 | 87 | 1009.9 |
| 20260503130605 | 55 | 215 | 0.0 | 3.0 | 0.00 | 0.00 | 0.00 | 88 | 1009.9 |
| 20260503130103 | 54 | 216 | 0.0 | 3.0 | 0.00 | 0.00 | 0.00 | 89 | 1009.9 |
| 20260503120105 | 53 | 212 | 0.0 | 3.0 | 0.00 | 0.00 | 0.00 | 91 | 1010.0 |
| 20260503110603 | 52 | 212 | 0.0 | 3.0 | 0.00 | 0.00 | 0.00 | 91 | 1010.3 |
| 20260503110104 | 52 | 212 | 0.0 | 3.0 | 0.00 | 0.00 | 0.00 | 91 | 1010.3 |
| 20260503100104 | 46 | 212 | 0.0 | 0.0 | 0.00 | 0.00 | 0.00 | 89 | 1010.8 |
| 20260503081605 | 47 | 212 | 0.0 | 0.0 | 0.00 | 0.00 | 0.00 | 89 | 1011.5 |
| 20260503081105 | 47 | 212 | 0.0 | 0.0 | 0.00 | 0.00 | 0.00 | 89 | 1011.6 |
| 20260503080605 | 47 | 212 | 0.0 | 0.0 | 0.00 | 0.00 | 0.00 | 89 | 1011.6 |
| 20260503080105 | 47 | 212 | 0.0 | 0.0 | 0.00 | 0.00 | 0.00 | 89 | 1011.5 |
| 20260503072606 | 47 | 212 | 0.0 | 0.0 | 0.00 | 0.00 | 0.00 | 88 | 1011.8 |
| 20260503072106 | 47 | 212 | 0.0 | 0.0 | 0.00 | 0.00 | 0.00 | 88 | 1011.8 |
| 20260503071109 | 47 | 212 | 0.0 | 0.0 | 0.00 | 0.00 | 0.00 | 89 | 1011.9 |
| 20260503070604 | 48 | 212 | 0.0 | 0.0 | 0.00 | 0.00 | 0.00 | 89 | 1011.9 |
| 20260503070105 | 48 | 212 | 0.0 | 0.0 | 0.00 | 0.00 | 0.00 | 88 | 1012.0 |
| 20260503060106 | 50 | 212 | 0.0 | 0.0 | 0.00 | 0.00 | 0.00 | 89 | 1012.4 |
| 20260503055105 | 50 | 212 | 0.0 | 0.0 | 0.00 | 0.00 | 0.00 | 89 | 1012.3 |